Regional Weather Roundup
Issued by NWS

Home | Current Version | Previous Version | Graphics & Text | Print | Product List | Glossary Off
Versions: 1 2 3 4 5 6 7 8 9 10 11 12 13 14 15 16 17 18 19 20 21 22 23 24 25 26 27 28 29 30 31 32 33 34 35 36 37 38 39 40 41 42 43 44 45 46 47 48 49 50

346
ASUS43 KMKX 221921
RWRWI

WISCONSIN REGIONAL WEATHER ROUNDUP
NATIONAL WEATHER SERVICE MILWAUKEE/SULLIVAN WI
200 PM CDT WED MAR 22 2017

NOTE: "FAIR" INDICATES FEW OR NO CLOUDS BELOW 12,000 FEET WITH NO
SIGNIFICANT WEATHER AND/OR OBSTRUCTIONS TO VISIBILITY.

WIZ001-002-006>008-014>016-023>028-222000-
NORTHWEST WISCONSIN

CITY           SKY/WX    TMP DP  RH WIND       PRES   REMARKS
SUPERIOR ARPT  MOSUNNY   31  14  51 NE9       30.51F WCI  22
ASHLAND        SUNNY     33  12  41 NE8       30.53F WCI  26
HAYWARD        SUNNY     35   5  28 SW7G17    30.49F WCI  29
SIREN          MOSUNNY   35   5  28 CALM      30.50F
CUMBERLAND     SUNNY     32   7  34 SE8       30.49F WCI  25
RICE LAKE      SUNNY     34   8  33 CALM      30.51F
CHETEK         SUNNY     34   7  32 S9        30.51F WCI  26
LADYSMITH      SUNNY     34   8  33 S9        30.52F WCI  26
EAU CLAIRE     SUNNY     35   5  28 E12       30.51F WCI  27
MENOMONIE      SUNNY     37   6  26 E12       30.51F WCI  30
NEW RICHMOND   SUNNY     36   6  28 SE8       30.51S WCI  29
OSCEOLA        SUNNY     36   9  31 SE12      30.53F WCI  28
$$

WIZ003>005-009-010-017-018-222000-
NORTH CENTRAL WISCONSIN

CITY           SKY/WX    TMP DP  RH WIND       PRES   REMARKS
MANITOWISH WTR SUNNY     30   1  29 S8        30.49F WCI  22
ARBOR VITAE    SUNNY     32   5  32 S6        30.49F WCI  26
WOODRUFF       SUNNY     32   5  32 S6        30.49F WCI  26
RHINELANDER    SUNNY     33   3  28 SW9       30.49F WCI  25
EAGLE RIVER    SUNNY     31  -1  25 S3        30.48F
LAND O LAKES   SUNNY     31   2  29 SW7       30.50F WCI  25
PHILLIPS       MOSUNNY   32   6  32 SE3       30.48F
TOMAHAWK       SUNNY     34   6  31 CALM      30.51F
MEDFORD        SUNNY     29   9  43 S6        30.51F WCI  23
MERRILL        SUNNY     32   9  38 SW7       30.53F WCI  26
$$

WIZ029-030-035-036-043>047-222000-
CENTRAL WISCONSIN

CITY           SKY/WX    TMP DP  RH WIND       PRES   REMARKS
WAUSAU         SUNNY     33   6  32 VRB7      30.52F WCI  27
MOSINEE        SUNNY     32   5  32 S7        30.53F WCI  26
MARSHFIELD     SUNNY     30   7  37 CALM      30.51F
STEVENS POINT  SUNNY     31   7  35 SE8       30.53F WCI  24
WAUPACA        SUNNY     35  10  35 S3        30.57F
WAUTOMA        SUNNY     33   9  36 CALM      30.56F
WISC RAPIDS    SUNNY     33   5  30 E6        30.55F WCI  28
CAMP DOUGLAS   MOSUNNY   36   5  27 E9        30.53F WCI  29
$$

WIZ011>013-019>022-031-037>040-048>050-222000-
NORTHEAST WISCONSIN

CITY           SKY/WX    TMP DP  RH WIND       PRES   REMARKS
ANTIGO         SUNNY     30   6  36 S5        30.51F WCI  25
SHAWANO        SUNNY     32  11  41 NE7       30.57F WCI  26
OCONTO         SUNNY     29  11  46 SE6       30.60F WCI  23
STURGEON BAY   MOSUNNY   28  15  58 NE7       30.60F WCI  21
GREEN BAY      SUNNY     32  14  47 VRB3      30.59F
MANITOWOC      CLOUDY    29  17  61 CALM      30.61F
APPLETON       MOSUNNY   30   7  37 VRB5      30.57F WCI  25
CLINTONVILLE   SUNNY     32   9  37 SE7       30.56F WCI  26
OSHKOSH        SUNNY     31  15  52 E9        30.58F WCI  23
$$

WIZ032>034-041-042-053>061-222000-
SOUTHWEST WISCONSIN

CITY           SKY/WX    TMP DP  RH WIND       PRES   REMARKS
LA CROSSE      SUNNY     39   6  25 S10       30.53F WCI  32
SPARTA         SUNNY     36   8  31 E5        30.54F WCI  32
VIROQUA        SUNNY     36   6  28 E9        30.50F WCI  29
BOSCOBEL       SUNNY     40   5  23 MISG      30.54F
PRAIRIE DU CHI SUNNY     37   7  28 E5        30.53F WCI  34
PLATTEVILLE    SUNNY     36   9  32 SE9       30.53F WCI  29
$$

WIZ056-057-062-063-064-067-068-222000-
SOUTH CENTRAL WISCONSIN

CITY           SKY/WX    TMP DP  RH WIND       PRES   REMARKS
REEDSBURG      SUNNY     35   9  34 S5        30.52F WCI  31
BARABOO/DELLS  SUNNY     35   8  32 SE10      30.53F WCI  27
LONE ROCK      SUNNY     37   7  28 VRB6      30.54F WCI  32
MINERAL POINT  SUNNY     37   9  30 E9        30.52F WCI  31
MADISON        MOSUNNY   34  12  40 SE5       30.55F WCI  30
MIDDLETON      SUNNY     37  16  43 E12       30.54F WCI  29
WATERTOWN      SUNNY     34  15  46 E5        30.55F WCI  30
MONROE         SUNNY     36  14  41 E8        30.52F WCI  29
JANESVILLE     MOSUNNY   37  14  38 E6        30.54F WCI  33
$$

WIZ051-052-058>065-066-070>072-222000-
SOUTHEAST WISCONSIN

CITY           SKY/WX    TMP DP  RH WIND       PRES   REMARKS
MILWAUKEE      PTSUNNY   32  16  51 N7        30.59F WCI  26
WAUKESHA       MOSUNNY   32  16  51 E9        30.57F WCI  24
MILWAUKEE/TIMM MOSUNNY   30  14  51 NE8       30.59F WCI  23
RACINE         CLOUDY    33  18  53 NE10      30.60F WCI  25
KENOSHA        MOSUNNY   32  19  58 E8        30.58S WCI  25
FOND DU LAC    SUNNY     33  15  47 VRB6      30.57F WCI  28
SHEBOYGAN      CLOUDY    30  19  63 MISG      30.59F
WEST BEND      MOSUNNY   32  18  55 E7        30.57F WCI  26
JUNEAU         SUNNY     32  15  49 CALM      30.57F
$$

LSZ147-162-222000-
LAKE SUPERIOR

STATION/POSITION TIME  TEMP    WIND        PRES    WAVE
                       AIR SEA DIR/SP/G            HT/PER
                 (UTC) (F)     (DEG/KT/KT) (MB)    (FT/S)
DEVILS ISLAND    1900   26      90/  6/  7 1035.7F
PORT WING        1840   28      20/ 12/ 14 1033.9F
SAXON HARBOR     1830   26      30/  8/ 10 1034.5F
$$

LMZ867-665-643>646-222000-
LAKE MICHIGAN

STATION/POSITION TIME  TEMP    WIND        PRES    WAVE
                       AIR SEA DIR/SP/G            HT/PER
                 (UTC) (F)     (DEG/KT/KT) (MB)    (FT/S)
CHAMBERS ISLAND  1840   29     340/  3/  5 1036.2F
NORTHPORT PIER   1840   27     360/  2/  5 1036.9F
SISTER BAY       1650   27      10/ 15/ 17   N/A
KEWAUNEE LAKESHO 1854   26     100/  4/  8 1036.1F
SHEBOYGAN LAKESH 1900   26      50/  8/ 10 1037.2F
PORT WASHINGTON  1830   30      70/  8/ 10 1036.9F
MILWAUKEE LAKESH 1850   29      60/  8/ 10   N/A
KENOSHA   LAKESH 1900   30      90/  2/  5 1035.9
$$

TC  - TEMPERATURE IN CELSIUS
VSB - VISIBILITY IN STATUTE MILES
WCI - WIND CHILL INDEX
HX  - HEAT INDEX





USA.gov is the U.S. government's official web portal to all federal, state and local government web resources and services.